Temp
-16 -16 -16 -17 -17 -16 -16 -15 -15 -14 -14 -14 -14 -14 -12 -12 -12 -12 -12 -12 -12 -12 -12 -12 -13 -13 -13 -13 -14 -14 -12 -12 -12 -12 -13 -13 -13 -12 -12 -11 -11 -11 -11
-18 -18 -17 -18 -18 -17 -16 -16 -15 -15 -15 -14 -15 -14 -14 -13 -13 -12 -12 -13 -13 -13 -13 -13 -14 -14 -14 -15 -14 -14 -14 -14 -13 -13 -14 -13 -12 -12 -12 -11 -11 -11 -11
-18 -18 -18 -19 -19 -18 -18 -17 -16 -16 -16 -15 -15 -15 -15 -14 -14 -14 -14 -14 -14 -15 -14 -15 -15 -15 -14 -14 -14 -14 -13 -14 -14 -14 -14 -12 -12 -12 -12 -12 -12 -12 -12
-18 -18 -19 -19 -19 -19 -18 -18 -17 -17 -17 -16 -16 -15 -15 -16 -17 -17 -15 -16 -17 -17 -16 -15 -15 -15 -15 -15 -14 -14 -13 -13 -13 -12 -12 -12 -12 -12 -12 -12 -12 -12 -12
-19 -19 -19 -19 -19 -19 -19 -19 -18 -18 -17 -17 -16 -16 -15 -16 -17 -16 -16 -17 -17 -17 -17 -15 -14 -14 -14 -14 -14 -14 -14 -13 -13 -13 -12 -12 -12 -12 -12 -12 -13 -13 -13
-20 -19 -19 -19 -20 -20 -19 -19 -19 -18 -18 -17 -17 -17 -16 -16 -16 -17 -16 -16 -16 -17 -16 -16 -15 -14 -14 -14 -13 -13 -13 -13 -13 -13 -13 -13 -13 -13 -13 -13 -13 -13 -13
-20 -20 -20 -20 -20 -20 -20 -19 -19 -19 -18 -18 -18 -17 -17 -17 -16 -16 -16 -16 -15 -15 -15 -15 -15 -15 -14 -14 -14 -14 -14 -14 -14 -14 -13 -13 -13 -13 -13 -13 -13 -14 -13
-21 -21 -20 -20 -20 -20 -20 -20 -19 -19 -19 -19 -18 -18 -18 -17 -17 -17 -16 -16 -16 -15 -15 -15 -15 -15 -15 -14 -14 -14 -14 -14 -14 -14 -14 -14 -14 -13 -13 -13 -14 -14 -14
-22 -21 -21 -21 -21 -21 -20 -20 -20 -20 -20 -19 -19 -19 -18 -18 -18 -17 -17 -17 -16 -16 -16 -16 -16 -15 -15 -15 -15 -15 -14 -14 -14 -14 -14 -14 -14 -14 -14 -14 -14 -14 -14
-23 -22 -22 -22 -21 -21 -21 -21 -20 -20 -20 -20 -20 -19 -19 -19 -18 -18 -18 -17 -17 -17 -17 -16 -16 -16 -16 -16 -15 -15 -15 -15 -15 -15 -15 -15 -14 -14 -14 -14 -14 -14 -14
-23 -23 -22 -22 -22 -22 -21 -21 -21 -21 -20 -20 -20 -20 -20 -19 -19 -19 -19 -18 -18 -17 -17 -17 -17 -17 -16 -16 -16 -16 -16 -15 -15 -15 -15 -15 -15 -15 -15 -15 -14 -14 -14
-24 -24 -23 -23 -23 -22 -22 -22 -22 -21 -21 -21 -21 -20 -20 -20 -20 -20 -19 -19 -19 -18 -18 -18 -18 -17 -17 -17 -17 -16 -16 -16 -16 -15 -15 -15 -15 -15 -15 -15 -15 -15 -15
-25 -24 -24 -24 -23 -23 -23 -23 -22 -22 -22 -22 -21 -21 -21 -20 -20 -20 -20 -19 -19 -19 -19 -19 -18 -18 -18 -17 -17 -17 -17 -17 -16 -16 -16 -16 -16 -16 -16 -15 -15 -15 -15
-25 -25 -24 -24 -24 -24 -24 -23 -23 -23 -22 -22 -22 -22 -22 -22 -21 -21 -20 -20 -20 -20 -19 -19 -19 -19 -19 -18 -18 -18 -18 -18 -18 -17 -17 -17 -17 -16 -16 -16 -16 -15 -15
-26 -25 -25 -25 -24 -24 -24 -24 -24 -23 -23 -23 -23 -22 -22 -22 -21 -21 -21 -21 -20 -20 -20 -20 -19 -19 -19 -19 -19 -19 -19 -18 -18 -18 -18 -18 -17 -17 -17 -17 -16 -16 -16
-26 -26 -25 -25 -25 -24 -24 -24 -24 -24 -24 -24 -24 -23 -23 -23 -22 -22 -22 -21 -21 -21 -21 -20 -20 -20 -20 -19 -19 -19 -19 -19 -19 -19 -19 -18 -18 -18 -18 -18 -18 -18 -17
-27 -27 -27 -27 -26 -26 -26 -25 -25 -25 -25 -25 -25 -25 -24 -24 -23 -23 -23 -23 -22 -22 -22 -21 -21 -21 -21 -20 -20 -20 -20 -19 -19 -19 -19 -19 -19 -18 -18 -18 -18 -18 -18
-28 -28 -28 -28 -28 -27 -27 -27 -27 -27 -26 -26 -26 -26 -25 -25 -24 -24 -24 -24 -23 -23 -23 -22 -22 -22 -21 -21 -21 -21 -20 -20 -20 -20 -20 -19 -19 -19 -19 -19 -19 -19 -19
-28 -28 -28 -28 -29 -28 -28 -28 -28 -29 -30 -29 -29 -28 -27 -27 -26 -26 -25 -25 -24 -24 -24 -24 -23 -23 -22 -22 -21 -21 -21 -21 -21 -21 -20 -20 -20 -20 -20 -19 -20 -19 -19
-28 -28 -29 -28 -28 -29 -28 -28 -29 -29 -30 -30 -30 -30 -29 -28 -28 -27 -27 -26 -26 -25 -25 -25 -24 -24 -23 -23 -22 -22 -22 -22 -21 -21 -21 -21 -21 -21 -20 -20 -20 -20 -20
-29 -28 -28 -29 -29 -28 -28 -29 -29 -29 -29 -30 -30 -30 -30 -30 -30 -29 -29 -28 -27 -26 -26 -25 -25 -25 -25 -24 -24 -23 -23 -22 -22 -22 -22 -21 -21 -21 -21 -21 -21 -20 -20
-30 -29 -29 -29 -29 -29 -29 -29 -29 -29 -30 -30 -30 -31 -31 -31 -30 -30 -30 -29 -29 -28 -27 -27 -26 -26 -26 -25 -24 -24 -24 -23 -23 -23 -23 -22 -22 -22 -22 -21 -21 -21 -21
-30 -30 -30 -30 -30 -30 -30 -30 -30 -30 -30 -30 -30 -30 -31 -31 -30 -30 -30 -30 -29 -29 -29 -28 -28 -28 -27 -26 -26 -25 -25 -24 -24 -24 -23 -23 -23 -22 -22 -22 -22 -21 -21
-31 -31 -31 -31 -31 -31 -31 -31 -31 -31 -31 -31 -31 -31 -31 -31 -31 -30 -31 -30 -30 -30 -30 -29 -29 -29 -28 -27 -27 -26 -26 -26 -25 -25 -24 -24 -23 -23 -23 -22 -22 -22 -22
-32 -32 -32 -32 -32 -32 -32 -32 -32 -32 -32 -31 -31 -31 -31 -31 -31 -31 -31 -31 -31 -30 -30 -30 -30 -29 -29 -29 -28 -27 -27 -27 -26 -26 -25 -25 -24 -24 -23 -23 -23 -23 -22
-33 -33 -33 -33 -33 -33 -33 -32 -32 -32 -32 -32 -32 -32 -32 -32 -32 -32 -32 -32 -32 -32 -31 -30 -30 -31 -30 -30 -29 -29 -29 -28 -27 -27 -26 -26 -25 -25 -24 -24 -23 -23 -23
Height
5644 5649 5653 5658 5665 5671 5677 5683 5688 5695 5701 5705 5709 5714 5716 5720 5728 5734 5739 5744 5747 5751 5757 5761 5768 5773 5778 5781 5784 5787 5791 5796 5800 5803 5805 5809 5812 5816 5818 5820 5822 5825 5827
5632 5637 5642 5647 5652 5659 5665 5670 5677 5683 5688 5693 5697 5702 5707 5711 5715 5721 5727 5730 5734 5739 5744 5749 5757 5763 5769 5772 5777 5781 5783 5786 5791 5794 5797 5801 5804 5807 5809 5812 5815 5818 5820
5621 5626 5631 5636 5641 5646 5653 5658 5664 5671 5675 5681 5687 5692 5698 5701 5704 5708 5712 5718 5724 5730 5735 5741 5746 5753 5759 5763 5767 5772 5776 5779 5782 5785 5789 5792 5796 5797 5800 5803 5806 5809 5812
5610 5617 5621 5624 5629 5635 5641 5646 5651 5657 5664 5669 5674 5680 5685 5691 5694 5699 5703 5708 5714 5721 5726 5732 5737 5743 5748 5755 5759 5762 5766 5769 5773 5777 5780 5783 5786 5789 5793 5795 5797 5800 5803
5598 5605 5610 5613 5617 5621 5627 5632 5638 5644 5651 5658 5663 5668 5675 5680 5686 5691 5696 5700 5705 5711 5715 5722 5728 5733 5738 5744 5748 5752 5756 5759 5762 5766 5769 5772 5776 5779 5782 5785 5788 5791 5794
5584 5591 5598 5602 5605 5609 5613 5619 5624 5631 5638 5644 5650 5656 5662 5668 5673 5679 5685 5691 5696 5700 5706 5711 5717 5722 5727 5732 5736 5740 5744 5748 5751 5755 5758 5762 5766 5768 5772 5775 5778 5781 5783
5573 5578 5584 5588 5592 5596 5600 5606 5612 5618 5624 5630 5636 5642 5648 5654 5661 5666 5672 5678 5683 5689 5695 5701 5706 5711 5716 5719 5724 5728 5732 5736 5740 5744 5747 5751 5755 5758 5761 5765 5768 5771 5772
5562 5566 5568 5574 5579 5583 5588 5593 5598 5604 5610 5615 5621 5628 5634 5640 5646 5652 5659 5664 5670 5676 5682 5687 5692 5698 5703 5708 5711 5716 5720 5725 5729 5732 5736 5739 5743 5746 5750 5754 5757 5760 5762
5550 5554 5556 5560 5565 5569 5574 5579 5584 5589 5595 5601 5606 5613 5620 5627 5632 5637 5643 5649 5655 5660 5667 5672 5677 5683 5688 5693 5698 5702 5707 5711 5715 5720 5723 5727 5731 5734 5738 5741 5745 5748 5751
5538 5543 5544 5547 5552 5558 5561 5566 5571 5576 5581 5588 5593 5599 5605 5611 5617 5622 5628 5633 5638 5645 5650 5656 5661 5667 5672 5677 5682 5687 5692 5696 5701 5705 5710 5713 5717 5721 5724 5728 5731 5734 5738
5526 5530 5533 5536 5539 5543 5548 5552 5557 5562 5567 5573 5579 5585 5590 5595 5601 5607 5613 5619 5624 5629 5634 5639 5644 5650 5655 5661 5666 5671 5675 5680 5685 5689 5694 5697 5701 5705 5708 5712 5716 5719 5723
5515 5517 5519 5523 5527 5530 5534 5538 5543 5548 5553 5558 5563 5568 5574 5579 5584 5589 5595 5601 5607 5613 5618 5622 5628 5633 5638 5643 5648 5653 5658 5663 5668 5672 5676 5681 5685 5688 5692 5696 5699 5702 5706
5502 5506 5508 5510 5514 5517 5521 5525 5528 5533 5538 5543 5548 5552 5557 5563 5568 5573 5578 5583 5589 5595 5601 5606 5612 5616 5621 5626 5631 5636 5641 5645 5650 5655 5658 5663 5667 5671 5675 5678 5682 5685 5688
5489 5491 5494 5497 5500 5503 5507 5511 5515 5518 5522 5526 5530 5535 5540 5546 5551 5557 5562 5567 5573 5578 5583 5588 5594 5599 5604 5609 5614 5618 5623 5627 5632 5636 5640 5644 5649 5652 5656 5660 5663 5666 5670
5474 5476 5479 5481 5485 5489 5492 5496 5500 5504 5508 5511 5516 5520 5524 5529 5533 5538 5544 5549 5554 5560 5565 5571 5576 5581 5586 5591 5595 5601 5605 5610 5614 5618 5621 5625 5630 5633 5637 5641 5643 5647 5651
5461 5461 5463 5466 5469 5472 5476 5480 5484 5488 5491 5495 5499 5503 5508 5513 5517 5522 5527 5532 5537 5542 5548 5553 5558 5564 5569 5574 5578 5583 5587 5591 5595 5599 5602 5606 5610 5614 5618 5621 5625 5629 5633
5450 5451 5451 5453 5454 5456 5459 5462 5466 5470 5474 5478 5482 5487 5491 5495 5499 5505 5510 5514 5519 5525 5529 5535 5540 5545 5550 5555 5560 5565 5569 5574 5577 5581 5585 5588 5592 5596 5599 5603 5607 5610 5612
5440 5440 5441 5441 5442 5442 5443 5446 5448 5452 5456 5459 5463 5468 5472 5477 5482 5487 5491 5495 5501 5506 5511 5516 5521 5526 5531 5537 5542 5546 5550 5554 5558 5562 5566 5569 5573 5577 5580 5584 5588 5590 5590
5430 5430 5431 5431 5431 5431 5431 5433 5434 5436 5439 5442 5445 5449 5454 5459 5464 5468 5473 5477 5483 5487 5491 5497 5503 5507 5512 5518 5522 5527 5531 5535 5539 5543 5547 5551 5554 5558 5563 5567 5569 5570 5571
5420 5420 5420 5420 5420 5420 5420 5421 5421 5423 5424 5426 5429 5434 5438 5443 5447 5450 5455 5460 5465 5469 5474 5479 5484 5489 5493 5499 5504 5509 5512 5517 5522 5526 5529 5533 5538 5541 5544 5549 5551 5553 5554
5409 5409 5409 5409 5409 5409 5409 5409 5410 5410 5410 5412 5414 5418 5422 5427 5431 5434 5438 5442 5447 5452 5457 5462 5466 5471 5476 5481 5486 5491 5495 5499 5504 5507 5511 5516 5520 5524 5527 5531 5534 5536 5538
5398 5398 5398 5397 5396 5397 5398 5398 5398 5397 5398 5399 5399 5401 5405 5409 5413 5417 5421 5425 5430 5435 5439 5444 5448 5452 5457 5461 5467 5472 5477 5481 5486 5490 5494 5499 5503 5507 5510 5514 5517 5519 5520
5387 5386 5385 5385 5384 5384 5384 5384 5384 5385 5385 5385 5386 5387 5388 5391 5394 5399 5402 5407 5412 5417 5422 5427 5432 5435 5439 5445 5450 5454 5459 5464 5469 5472 5477 5481 5485 5489 5493 5497 5500 5502 5504
5375 5374 5373 5372 5371 5370 5370 5370 5370 5371 5371 5371 5372 5372 5373 5374 5375 5378 5384 5388 5394 5398 5402 5408 5414 5417 5422 5428 5432 5437 5442 5446 5451 5455 5459 5464 5469 5473 5477 5481 5484 5486 5489
5361 5361 5359 5358 5357 5357 5355 5355 5355 5356 5356 5356 5357 5357 5358 5359 5361 5363 5365 5368 5373 5378 5385 5390 5395 5400 5405 5410 5414 5422 5425 5429 5435 5439 5444 5448 5453 5457 5462 5466 5470 5472 5475
5348 5347 5345 5344 5344 5342 5341 5341 5340 5340 5340 5340 5340 5341 5343 5344 5346 5348 5351 5354 5355 5358 5364 5369 5375 5380 5386 5391 5398 5403 5406 5411 5418 5423 5427 5433 5437 5442 5446 5451 5454 5458 5461
Wind_Speed
50 52 53 56 58 60 59 61 60 61 62 58 55 57 59 56 69 62 68 71 71 67 61 56 53 50 54 49 42 39 42 39 35 31 26 25 27 32 32 31 31 30 29
48 49 49 53 57 58 60 59 61 60 61 61 56 59 60 55 61 74 65 49 51 61 62 53 51 45 42 40 38 39 40 40 38 31 31 31 36 38 38 37 35 32 30
48 46 48 52 53 57 58 61 61 61 62 62 62 58 57 59 55 49 48 48 40 35 39 45 42 45 45 44 40 41 40 43 42 40 38 42 42 42 40 38 37 34 33
50 48 45 49 53 54 57 62 63 63 62 62 62 63 61 59 56 55 48 47 44 45 41 39 38 40 41 43 44 45 44 44 43 43 43 42 42 43 43 41 39 37 36
52 51 48 47 51 53 57 60 65 65 64 63 63 64 65 64 62 57 58 53 51 50 48 49 49 50 50 50 49 49 48 49 49 49 48 47 45 44 43 41 41 40 39
52 52 51 50 48 53 55 59 66 68 67 66 64 64 65 64 65 64 60 58 58 56 55 52 53 52 52 52 52 51 51 50 50 48 47 46 44 44 43 42 43 43 42
49 51 52 52 52 51 56 56 61 67 69 68 68 67 65 65 64 65 65 65 60 58 58 58 57 56 54 52 51 51 50 50 49 48 47 46 45 44 44 44 45 45 45
43 48 51 53 52 53 53 57 57 61 67 71 70 71 69 68 67 65 64 65 64 62 60 58 57 56 56 55 53 52 51 51 50 49 48 48 47 46 47 47 48 48 48
46 45 48 51 52 53 55 56 57 59 60 65 71 72 72 72 71 69 68 67 65 64 64 62 61 60 59 58 57 56 56 55 54 54 53 52 52 51 50 51 51 52 52
46 47 46 46 50 51 53 55 56 57 58 60 62 71 72 73 74 73 72 70 69 68 68 67 66 65 64 63 62 62 61 60 59 58 58 57 56 56 56 56 56 56 57
47 50 48 44 46 48 52 54 56 58 58 57 59 60 65 73 75 74 73 75 75 74 73 71 70 69 68 67 67 66 66 65 65 65 64 64 63 62 62 61 62 62 62
45 48 53 53 48 46 48 50 54 55 58 59 59 60 62 63 67 71 74 76 76 76 77 76 75 74 73 72 72 72 72 72 71 71 70 70 69 69 68 67 67 67 67
49 48 48 50 54 55 51 49 50 52 56 58 61 62 62 63 65 66 68 69 71 74 77 79 77 76 77 76 76 76 76 75 75 75 74 74 74 74 73 72 72 72 72
46 48 53 54 53 54 54 56 54 53 54 57 61 62 63 64 65 66 68 68 69 69 69 70 72 74 77 77 76 76 76 76 76 76 76 75 75 75 75 75 76 76 75
46 49 53 55 57 58 59 58 58 59 58 56 58 61 66 67 68 70 70 70 70 70 70 71 71 70 70 71 72 72 73 74 74 75 75 76 77 77 78 78 79 79 79
40 44 49 54 58 60 61 62 63 62 62 63 62 60 61 63 67 69 69 70 72 72 72 72 72 73 74 74 74 73 73 73 74 74 75 75 75 75 75 75 75 75 75
34 34 37 41 46 51 58 62 65 66 66 65 65 66 64 63 64 66 67 70 70 70 71 71 71 71 72 72 73 74 75 76 77 77 77 77 77 76 76 77 77 76 77
31 30 29 30 33 37 44 52 58 61 65 68 68 67 68 68 66 65 66 67 68 69 71 71 70 69 69 69 69 70 70 71 71 72 72 72 73 73 74 74 74 74 74
32 31 30 30 31 32 34 38 46 56 59 59 61 65 67 66 67 67 67 66 65 66 68 68 68 68 67 67 68 67 67 67 67 67 67 67 67 67 68 67 66 66 67
32 32 33 32 32 34 34 35 36 44 56 62 62 60 58 59 62 62 63 65 67 66 66 64 65 66 67 66 66 65 64 64 65 65 65 64 64 64 65 65 65 65 66
32 33 33 33 34 34 35 37 38 38 41 54 66 63 61 59 56 55 58 59 61 63 64 64 66 65 62 61 62 63 63 64 64 64 64 63 63 63 62 62 62 63 63
35 35 35 35 36 36 35 36 39 41 43 42 48 64 66 64 64 64 62 58 58 58 58 60 60 59 59 60 62 61 60 60 59 60 60 61 60 59 57 56 56 58 60
36 37 37 38 39 39 39 39 39 39 41 45 46 46 51 68 69 71 68 66 66 63 60 58 55 56 58 59 58 57 57 56 56 56 56 55 55 55 56 55 54 54 54
37 38 40 40 40 40 41 41 41 41 41 41 44 48 49 49 51 65 74 71 71 68 66 65 61 60 58 57 56 56 57 56 54 53 53 54 53 52 51 51 51 51 52
39 40 40 40 40 40 42 42 42 42 43 43 44 44 48 51 50 49 48 58 71 75 72 68 65 64 64 61 60 58 57 56 56 56 54 54 53 53 53 52 51 51 50
37 38 39 39 40 41 43 44 45 46 46 46 47 48 46 48 51 50 47 43 46 55 66 73 72 69 67 65 63 62 61 61 60 58 56 56 56 56 54 54 52 52 51
Wind_Direction
236 237 238 237 233 230 230 232 234 231 230 231 238 240 217 224 221 222 222 226 230 234 233 225 230 235 241 242 249 249 247 241 244 240 242 251 256 260 261 260 260 260 255
236 237 240 240 236 234 232 231 234 234 233 233 234 240 241 229 221 219 223 225 222 226 233 224 222 228 237 240 246 249 252 256 257 247 252 254 258 258 259 260 259 255 249
235 236 238 241 241 236 234 233 233 234 234 234 234 234 240 242 240 235 230 233 230 235 230 228 228 233 237 236 243 249 249 252 261 260 254 252 253 257 256 256 254 248 244
234 236 240 241 239 238 236 234 234 233 233 233 234 236 235 238 243 247 244 240 242 246 247 247 246 245 243 243 246 245 250 250 249 252 251 252 251 252 253 251 248 244 242
237 236 238 242 242 237 236 235 234 234 234 232 231 233 236 236 238 240 241 243 241 241 242 243 241 240 241 242 243 245 246 248 248 249 248 250 250 250 248 247 245 243 242
240 238 237 239 242 239 239 237 235 234 233 233 232 232 232 235 235 238 240 238 238 239 239 241 242 241 240 241 243 243 243 245 245 246 247 248 248 247 246 244 243 243 243
240 240 238 238 239 241 238 238 240 236 234 233 233 232 231 232 233 235 236 239 240 239 238 238 238 240 241 241 242 243 244 244 245 247 247 248 248 248 246 243 242 242 244
242 240 241 241 239 240 240 238 236 242 238 236 235 235 234 233 233 233 235 235 237 238 238 238 238 239 240 241 242 243 244 245 246 247 248 248 249 248 247 245 244 244 245
242 243 242 241 240 240 239 238 238 236 240 240 237 236 236 237 236 234 235 235 236 237 238 239 239 240 240 241 242 243 245 245 246 247 248 248 248 248 247 247 247 247 248
241 241 243 243 241 240 241 241 240 239 237 240 242 239 239 239 239 239 238 237 238 238 238 239 240 241 241 242 242 243 244 246 247 248 248 249 249 249 249 248 249 250 251
239 239 240 242 243 241 240 240 240 240 240 239 238 242 242 241 241 241 242 242 241 240 240 240 241 241 243 243 244 245 246 246 247 248 249 249 250 250 250 251 251 252 252
241 240 241 241 242 242 241 240 240 239 240 241 240 238 239 241 241 241 242 243 243 244 243 242 242 242 243 244 245 245 246 248 248 249 250 250 251 252 253 253 254 254 255
246 243 242 243 243 244 244 243 242 240 239 239 240 241 241 240 240 242 242 240 241 243 245 245 245 245 245 246 246 247 247 248 250 251 252 253 253 254 255 256 257 257 258
248 246 244 243 243 243 243 243 243 243 241 239 238 239 240 241 242 243 242 243 245 245 244 243 244 245 246 246 247 248 249 250 250 251 252 253 254 255 256 256 257 258 258
252 247 245 245 244 243 244 244 244 243 243 243 243 243 241 241 241 241 242 243 244 245 246 247 248 249 248 248 248 248 249 249 251 252 253 255 255 256 257 257 258 259 260
254 253 250 246 244 244 243 243 244 244 244 244 244 243 244 244 243 242 243 244 244 245 246 247 247 248 249 250 252 252 253 253 253 253 254 255 255 256 257 257 258 259 260
256 255 255 254 251 250 248 246 243 243 245 246 245 244 244 245 245 245 244 244 244 245 246 246 247 248 249 250 250 251 252 253 254 255 256 257 258 258 259 260 261 262 263
259 257 257 256 253 251 250 250 248 246 245 245 246 247 246 245 245 246 245 244 244 245 245 246 246 247 248 249 250 251 252 253 254 255 257 258 260 261 262 263 264 264 265
266 263 258 257 258 258 258 256 253 248 246 246 248 248 247 248 248 247 247 247 247 246 246 246 247 247 247 248 248 249 250 251 252 254 255 256 257 259 260 262 263 264 265
264 266 266 263 258 258 259 260 259 255 250 246 246 246 247 249 249 248 248 249 247 246 246 246 246 246 247 247 248 248 249 249 251 252 254 255 257 259 261 262 263 264 264
268 266 265 265 265 263 260 259 260 259 258 252 248 249 248 248 249 250 250 249 248 248 248 247 246 246 246 246 247 248 249 250 250 252 254 255 256 259 260 261 262 262 263
268 267 269 269 268 267 265 263 261 259 258 257 256 250 247 248 249 249 247 246 247 246 246 245 245 246 246 245 246 248 248 249 250 251 253 255 256 257 259 259 260 260 261
268 270 270 270 268 268 267 267 265 262 259 257 256 256 254 249 248 249 250 249 247 245 243 243 244 244 244 244 245 245 245 246 247 250 252 253 255 256 258 259 260 261 261
269 269 270 270 270 269 268 267 266 264 263 260 257 255 254 254 254 250 247 250 251 252 250 247 246 246 244 242 243 244 245 246 246 247 248 250 252 254 256 258 260 260 260
271 270 269 269 269 269 270 270 268 267 265 264 261 258 254 252 253 255 254 250 249 249 251 252 252 251 249 248 246 245 247 247 247 247 248 249 251 252 253 254 257 258 260
271 270 270 269 269 269 269 270 270 270 269 267 264 260 257 254 251 251 252 252 253 250 248 250 252 252 252 251 250 249 249 248 248 249 248 248 250 251 252 254 255 257 259